Regional Weather Roundup
Issued by NWS

Home | Current Version | Previous Version | Graphics & Text | Print | Product List | Glossary On
Versions: 1 2 3 4 5 6 7 8 9 10 11 12 13 14 15 16 17 18 19 20 21 22 23 24 25 26 27 28 29 30 31 32 33 34 35 36 37 38 39 40 41 42 43 44 45 46 47 48 49 50
000
ASUS43 KDTX 200801
RWRMI
MICHIGAN HOURLY REGIONAL WEATHER ROUNDUP
NATIONAL WEATHER SERVICE DETROIT/PONTIAC MI
300 AM EST SAT JAN 20 2018

NOTE: "FAIR" INDICATES FEW OR NO CLOUDS BELOW 12,000 FEET WITH NO
SIGNIFICANT WEATHER AND/OR OBSTRUCTION TO VISIBILITY.

MIZ047>049-052>055-059>063-066>070-074>076-081>083-200900-
SOUTHEAST LOWER MICHIGAN

CITY           SKY/WX    TMP DP  RH WIND       PRES   REMARKS
ADRIAN         FAIR      33  24  69 W13G22    29.83R WCI  24
ALMA           FAIR      38  28  69 SW14      29.72R WCI  29
ANN ARBOR      FAIR      33  24  69 S10       29.79R WCI  25
BAD AXE        FAIR      35  26  69 W21G29    29.66R WCI  23
CARO           FAIR      36  26  67 SW15G22   29.69R WCI  27
DETROIT CITY   FAIR      35  24  64 SW17G26   29.77R WCI  25
DETROIT        CLOUDY    34  25  69 SW17      29.80R WCI  23
FLINT          FAIR      36  24  62 SW16G23   29.74R WCI  26
GROSSE ILE     FAIR      35  26  68 SW14G23   29.80R WCI  26
HILLSDALE      FAIR      34  23  64 SW16G23   29.80R WCI  23
HOWELL         FAIR      36  26  66 SW15G22   29.75R WCI  27

CITY           SKY/WX    TMP DP  RH WIND       PRES   REMARKS
JACKSON        FAIR      35  24  64 SW20G25   29.78R WCI  24
LAMBERTVILLE   FAIR      35  24  65 SW16      29.84R WCI  25
LANSING        FAIR      36  25  64 SW16      29.75R WCI  26
LAPEER         FAIR      38  25  59 W16G25    29.71R WCI  29
MASON          FAIR      36  23  60 SW10G20   29.76R WCI  28
MONROE         FAIR      34  24  66 SW16G24   29.81R WCI  24
MT. CLEMENS    FAIR     N/A N/A N/A SW14        N/A
PONTIAC        FAIR      37  25  61 W14G24    29.73R WCI  28
PORT HOPE        N/A     37  25  61 W14G25    29.62R WCI  28
PORT HURON     FAIR      34  23  64 SW7       29.74R WCI  28
TRI CITIES     FAIR      36  28  73 SW18      29.69R WCI  26
MIDLAND        FAIR      38  29  69 W13G20    29.68R WCI  30
TROY           FAIR      34  24  67 SW9       29.77R WCI  27
SAGINAW HB     FAIR      34  27  75 SW10      29.70R WCI  26
$$
MIZ043>046-050>051-056>058-064>065-071>073-077>080-200900-
SOUTHWEST LOWER MICHIGAN

CITY           SKY/WX    TMP DP  RH WIND       PRES   REMARKS
BATTLE CREEK   FAIR      36  25  64 SW17G29   29.79R WCI  26
BENTON HARBOR  FAIR      40  26  57 SW18G26   29.82R WCI  31
BIG RAPIDS     FAIR      37  28  70 SW7       29.69R WCI  31
COLDWATER      FAIR      33  24  70 SW15G21   29.82R WCI  23
HOLLAND        FAIR      38  29  70 SW21      29.77R WCI  28
GRAND RAPIDS   FAIR      38  27  64 SW21      29.74R WCI  28
IONIA          FAIR      37  27  67 SW18G25   29.72R WCI  26
KALAMAZOO      FAIR      37  25  61 SW15      29.80R WCI  28
LUDINGTON      FAIR      37  32  84 SW9G17    29.69R WCI  30
MARSHALL       FAIR      34  24  66 SW14G21   29.79R WCI  24
MOUNT PLEASANT FAIR      38  28  67 SW13      29.68R WCI  30
MUSKEGON       FAIR      38  31  76 SW16      29.74R WCI  29
SOUTH HAVEN    FAIR      40  28  62 SW21G29   29.79R WCI  30
$$
MIZ016>042-200900-
NORTHERN LOWER MICHIGAN

CITY           SKY/WX    TMP DP  RH WIND       PRES   REMARKS
ALPENA         FAIR      40  29  64 W10       29.55R WCI  33
BEAVER ISLAND  FAIR      36  31  81 W9        29.60R WCI  29
CADILLAC       FAIR      36  28  74 W13G18    29.65R WCI  27
CHARLEVOIX     FAIR      38  31  73 SW14G22   29.65R WCI  30
FRANKFORT      FAIR      39  32  76 SW6       29.67R
GAYLORD        FAIR      35  29  78 W18G24    29.58R WCI  24
GRAYLING       FAIR      36  27  68 W15G24    29.60R WCI  27
HARBOR SPRINGS FAIR      36  30  80 W5        29.60R WCI  32
HOUGHTON LAKE  FAIR      36  27  69 W13       29.63R WCI  27
MANISTEE       FAIR      39  30  70 SW9       29.68R WCI  33
OSCODA         FAIR      34  27  74 SW14      29.59R WCI  25
PELLSTON       FAIR      38  30  73 W18       29.57R WCI  28
ROGERS CITY    FAIR      39  29  66 W13G23    29.54R WCI  32
TRAVERSE CITY  FAIR      40  30  67 W12       29.63R WCI  33
$$
MIZ007>008-015-200900-
EASTERN UPPER MICHIGAN

CITY           SKY/WX    TMP DP  RH WIND       PRES   REMARKS
KINROSS        FAIR      34  28  79 W10       29.54R WCI  26
MACKINAC ISLAN FAIR      35  30  83 W12G23    29.56R WCI  26
NEWBERRY       FAIR      32  29  86 W9        29.55R WCI  25
S. S. MARIE    FAIR      38  29  70 W15       29.51R WCI  29
$$
MIZ004>006-011>014-085-200900-
CENTRAL UPPER MICHIGAN

CITY           SKY/WX    TMP DP  RH WIND       PRES   REMARKS
ESCANABA       FAIR      32  26  78 CALM      29.62R
MENOMINEE      FAIR      38  28  67 VRB6      29.65R WCI  33
SAWYER-GWINN   FAIR      33  26  77 W7        29.58R WCI  27
$$
MIZ001>003-009>011-084-200900-
WESTERN UPPER MICHIGAN

CITY           SKY/WX    TMP DP  RH WIND       PRES   REMARKS
IRON MOUNTAIN  FAIR      36  27  69 W9        29.60R WCI  29
HOUGHTON       CLOUDY    37  29  72 W21G29    29.56R WCI  26
COPPER HARBOR    N/A     39  31  72 NW16G26   29.54R WCI  30
IRONWOOD       FAIR      30  25  81 W9        29.65R WCI  22
$$

ABBREVIATIONS USED IN REMARKS
   TC - TEMPERATURE IN CELSIUS
  WCI - WIND CHILL INDEX
   HX - HEAT INDEX
  VSB - VISIBILITY





USA.gov is the U.S. government's official web portal to all federal, state and local government web resources and services.